Погода в Херсоне

Украина / Херсонская область     46°38′25″N   32°36′53″E
темп.,
°C
ветер,
м/с
пор.,
м/с
влажн.,
%
обл.,
%
осадки,
мм/ч
давл.,
гПа
погр.,
м
18 мая, вт
вт1800:00+13ююз48915 0.1 1006184
03:00+13ю489291 0.1 1005210
06:00+13ююв49925 0.0 1005227
09:00+18ю687397 0.4 1004498
12:00+16ю61182100 1.6 1005846
15:00+19ююз9116575 2.5 10031362
18:00+18ююз897177 0.4 1004996
21:00+13ю59850 0.4 1003263
19 мая, ср
ср1900:00+13ююз511825 0.0 1003296
03:00+12ююз510855 0.0 1003303
06:00+12юз488895 0.3 1003349
09:00+13юз61092100 1.6 1003737
12:00+16зюз101376100 1.3 10041350
15:00+17зсз10137298 1.8 10061154
18:00+17з8136795 0.3 10081536
21:00+14з613700 0.3 1009624
20 мая, чт
чт2000:00+12зюз411801 0.0 1011292
03:00+13зюз386798 0.0 1010209
06:00+11з2274100 0.0 101132
09:00+16ю2369100 0.0 1011444
12:00+18ююз4563100 0.1 1011700
15:00+20юв234978 0.1 1010958
18:00+22в233967 0.0 10091573
21:00+17всв5106561 0.0 1010314
21 мая, пт
пт2100:00+14св4880100 0.0 1009191
03:00+13всв51079100 0.0 1009247
06:00+13в4684100 0.0 1009210
09:00+17вюв3474100 0.0 1009617
12:00+21ююв3357100 0.0 10101105
15:00+24ююз3348100 0.0 10091359
18:00+21зюз3257100 0.0 1009428
21:00+16зсз337361 0.0 101041
22 мая, сб
сб2200:00+15с488773 0.0 1009148
03:00+15ссз4791100 0.1 1010192
06:00+14с6129048 0.3 1010319
09:00+20ссв710705 0.3 1010582
12:00+25ссв78552 0.0 10101273
15:00+27ссв774776 0.0 10091871
18:00+25с695626 0.0 1009831
21:00+21с612735 0.0 1011285